Location: Ville-Marie
(47.3330°N, 79.4330°W)
Time: 09:24:47
(UTC-04:00)

ISS - Visible Passes

Search period start: 25 September 2022 00:00
Search period end: 05 October 2022 00:00
Orbit: 414 x 417 km, 51.6° (Epoch: 25 September)

Date Brightness Start Highest point End Pass type
(mag) Time Alt. Az. Time Alt. Az. Time Alt. Az.
25 Sep -2.9 20:45:48 10° WNW 20:49:01 41° N 20:49:51 34° NE visible
25 Sep -0.3 22:22:34 10° WNW 22:22:44 11° WNW 22:22:44 11° WNW visible
26 Sep -2.7 19:57:05 10° WNW 20:00:16 38° N 20:03:00 13° ENE visible
26 Sep -2.0 21:33:54 10° WNW 21:35:53 32° WNW 21:35:53 32° WNW visible
27 Sep -3.6 20:45:14 10° WNW 20:48:34 59° NNE 20:49:03 52° ENE visible
28 Sep -3.2 19:56:32 10° WNW 19:59:49 47° NNE 20:02:13 16° E visible
28 Sep -1.7 21:33:19 10° WNW 21:35:06 27° W 21:35:06 27° W visible
29 Sep -3.9 20:44:34 10° WNW 20:47:56 77° SSW 20:48:18 66° SSE visible
30 Sep -3.8 19:55:50 10° WNW 19:59:12 75° NNE 20:01:32 18° ESE visible
30 Sep -1.2 21:32:58 10° W 21:34:25 18° WSW 21:34:25 18° WSW visible
01 Oct -2.6 20:43:58 10° WNW 20:47:04 35° SW 20:47:43 31° S visible
02 Oct -3.2 19:55:06 10° WNW 19:58:23 55° SSW 20:01:05 14° SE visible
03 Oct -1.2 20:43:50 10° W 20:45:57 16° SW 20:47:26 12° SSW visible
04 Oct -1.7 19:54:32 10° W 19:57:20 24° SW 20:00:07 10° SSE visible
